DELTA 1 DEB, 29185

Orbit data source: Space-Track

DELTA 1 DEB, 29185 is space debris in LEO originally from a launch on Thu, 11 Jan 1968 UTC launched from the Air Force Western Test Range (AFWTR). Debris objects in space refer to the collection of defunct objects orbiting the Earth. Examples of debris include non-operational satellites, rocket bodies, and fragments generated from explosions, collisions, or faulty payload assembly.

Loading next visibility...
Identifier
29185, 1968-002J
Orbit
LEO
Country
Flag of USUS
Related business
Manufacturer
Unknown
Mission
Spacecraft
Bus & Motor
Unknown
Mass
Unknown
Launch date (UTC)
1968-01-11 (58 years ago)
Launch vehicle
Unknown
Launch site
Air Force Western Test Range (AFWTR)
Object type
Payload
Rocket body
Debris
Shape & HBR
Unknown shape, 0.1 m
Radar Cross Section
Small (<0.1 m²)

Expand to show TLE details & history
Last TLE update: 2 days ago

TLE from 2 days ago
0 DELTA 1 DEB
1 29185U 68002J   25349.12514066  .00001624  00000-0  35397-2 0  9991
2 29185 105.7865  95.0306 0261942 257.9201  99.2428 13.20172458442829
Epoch: 2025-12-15T03:00Z
TLE epoch observation values (Epoch: 2025-12-15T03:00:12.153Z)
Latitude
-0.00005°
Longitude
-34.04822°
Altitude
1,223.383 km
Speed
7.225 km/s
True Right ascension
06h 20m 07s
True Declination
0° 00' 00"
Sunlit
Object was in full shadow at epoch
Visualization orbit readout
Latitude
Unknown
Longitude
Unknown
Altitude
Unknown
Speed
Unknown
Apparent Right ascension
Unknown
Apparent Declination
Unknown
Sunlit
N/A
Visualization observer readout
Local Sidereal Time
18:12:13
Azimuth
Unknown
Elevation
Unknown
Doppler factor
Unknown
Orbital elements
Apogee altitude
1,379.825 km
Perigee altitude
983.772 km
Semi-major axis
7,559.936 km
Eccentricity
0.02619
Inclination
105.7865°
RAAN
95.0306°
Arg. of periapsis
257.9201°
True anomaly
102.18866°
Mean anomaly
99.2428°
Eccentric anomaly
100.71744°
Mean motion
3.30192 °/min
Orbital period
109.03 mins
BSTAR
0.0035397
Loading maneuver chart data...
Computing Atmospheric mass density...
Loading historical data...
Loading historical data...
Loading historical data...
Loading historical data...
Loading historical data...
Loading historical data...
Loading historical data...

Documentation

Showing up to 5 results
|